DW8231 Weather Reports


Display with metric or nautical units.
time (UTC)temp
F
wind
direction
speed
MPH
gust
MPH
rain 1hr
in
rain 24hr
in
rain mn
in
humidity
%
barometer
mb
20260831172002 86 275 0.0 0.0 0.00 0.00 0.00 70 1008.7
20260831171502 86 275 0.0 0.0 0.00 0.00 0.00 71 1008.8
20260831171001 86 274 0.0 0.0 0.00 0.00 0.00 71 1008.8
20260831170601 86 274 0.0 0.0 0.00 0.00 0.00 71 1008.8
20260831165602 85 273 0.0 0.0 0.00 0.00 0.00 72 1008.7
20260831165056 85 273 0.0 0.0 0.00 0.00 0.00 73 1008.7
20260831164558 84 273 0.0 0.0 0.00 0.00 0.00 74 1008.7
20260831164055 84 273 0.0 0.0 0.00 0.00 0.00 75 1008.6
20260831163553 84 269 0.0 0.0 0.00 0.00 0.00 75 1008.5
20260831163053 83 269 0.0 0.0 0.00 0.00 0.00 76 1008.5
20260831162651 83 269 0.0 0.0 0.00 0.00 0.00 77 1008.5
20260831162052 83 269 0.0 0.0 0.00 0.00 0.00 77 1008.5
20260831161551 82 261 0.0 0.0 0.00 0.00 0.00 77 1008.4
20260831161054 82 259 0.0 0.0 0.00 0.00 0.00 78 1008.5
20260831160554 82 259 0.0 0.0 0.00 0.00 0.00 79 1008.5
20260831160051 82 263 0.0 0.0 0.00 0.00 0.00 80 1008.4
20260831155551 81 263 0.0 0.0 0.00 0.00 0.00 81 1008.4
20260831155051 81 266 0.0 0.0 0.00 0.00 0.00 80 1008.4
20260831154551 81 269 0.0 0.0 0.00 0.00 0.00 80 1008.4
20260831154050 80 261 0.0 0.0 0.00 0.00 0.00 82 1008.3
20260831153553 80 261 0.0 0.0 0.00 0.00 0.00 82 1008.4
20260831153049 80 261 0.0 0.0 0.00 0.00 0.00 83 1008.3
20260831152651 79 260 0.0 0.0 0.00 0.00 0.00 83 1008.1
20260831152051 79 261 0.0 0.0 0.00 0.00 0.00 83 1008.2
20260831151651 79 261 0.0 0.0 0.00 0.00 0.00 84 1008.1
20260831151051 79 261 0.0 0.0 0.00 0.00 0.00 84 1008.1
20260831150550 78 261 0.0 0.0 0.00 0.00 0.00 85 1007.9
20260831150050 78 261 0.0 0.0 0.00 0.00 0.00 85 1008.0
20260831145550 78 260 0.0 0.0 0.00 0.00 0.00 86 1007.9
20260831145050 78 257 0.0 0.0 0.00 0.00 0.00 86 1007.8
20260831144553 77 262 0.0 0.0 0.00 0.00 0.00 86 1007.6
20260831144050 77 261 0.0 0.0 0.00 0.00 0.00 87 1007.6
20260831143550 77 261 0.0 0.0 0.00 0.00 0.00 87 1007.6
20260831143055 76 257 0.0 0.0 0.00 0.00 0.00 88 1007.6
20260831142651 76 249 0.0 0.0 0.00 0.00 0.00 89 1007.6
20260831142050 76 248 0.0 0.0 0.00 0.00 0.00 89 1007.6
20260831141551 76 246 0.0 0.0 0.00 0.00 0.00 89 1007.5
20260831141049 75 246 0.0 0.0 0.00 0.00 0.00 90 1007.5
20260831140549 75 252 0.0 0.0 0.00 0.00 0.00 91 1007.5
20260831140049 75 254 0.0 0.0 0.00 0.00 0.00 91 1007.4
20260831135549 75 254 0.0 0.0 0.00 0.00 0.00 91 1007.4
20260831135049 74 244 0.0 0.0 0.00 0.00 0.00 92 1007.4
20260831134549 74 236 0.0 4.0 0.00 0.00 0.00 92 1007.2
20260831134048 74 233 0.0 4.0 0.00 0.00 0.00 93 1007.1
20260831133548 74 209 1.0 4.0 0.00 0.00 0.00 93 1007.2
20260831133048 73 182 0.0 2.0 0.00 0.00 0.00 93 1007.1
20260831132048 73 182 0.0 0.0 0.00 0.00 0.00 93 1006.7
20260831131551 72 182 0.0 0.0 0.00 0.00 0.00 94 1006.8
20260831131048 72 182 0.0 0.0 0.00 0.00 0.00 93 1006.8
20260831130547 72 181 0.0 0.0 0.00 0.00 0.00 94 1006.8
20260831130054 72 181 0.0 0.0 0.00 0.00 0.00 94 1006.9
20260831125547 72 175 0.0 0.0 0.00 0.00 0.00 94 1006.9
20260831125048 71 160 0.0 0.0 0.00 0.00 0.00 94 1007.0
20260831124547 71 146 0.0 0.0 0.00 0.00 0.00 94 1007.0
20260831124048 71 145 0.0 0.0 0.00 0.00 0.00 94 1007.0
20260831123547 71 145 0.0 0.0 0.00 0.00 0.00 94 1006.9
20260831123047 71 145 0.0 0.0 0.00 0.00 0.00 94 1006.8
20260831122648 70 145 0.0 0.0 0.00 0.00 0.00 94 1006.8
20260831122048 70 145 0.0 0.0 0.00 0.00 0.00 94 1006.8
20260831121546 70 145 0.0 0.0 0.00 0.00 0.00 93 1006.8
20260831121046 70 145 0.0 0.0 0.00 0.00 0.00 93 1006.7
20260831120545 70 145 0.0 0.0 0.00 0.00 0.00 93 1006.6
20260831120045 70 145 0.0 0.0 0.00 0.00 0.00 93 1006.4
20260831115545 70 145 0.0 0.0 0.00 0.00 0.00 93 1006.3
20260831115045 70 145 0.0 0.0 0.00 0.00 0.00 93 1006.4
20260831114545 70 145 0.0 0.0 0.00 0.00 0.00 93 1006.4
20260831114045 70 145 0.0 0.0 0.00 0.00 0.00 93 1006.2
20260831113545 70 145 0.0 0.0 0.00 0.00 0.00 93 1006.1
20260831113045 70 145 0.0 0.0 0.00 0.00 0.00 93 1006.1
20260831112646 70 145 0.0 0.0 0.00 0.00 0.00 93 1006.1
20260831112045 70 145 0.0 0.0 0.00 0.00 0.00 93 1006.0
20260831111546 71 145 0.0 0.0 0.00 0.00 0.00 93 1006.1
20260831111045 71 145 0.0 0.0 0.00 0.00 0.00 93 1006.0
20260831110545 71 146 0.0 0.0 0.00 0.00 0.00 93 1006.0
20260831110047 71 146 0.0 0.0 0.00 0.00 0.00 93 1005.9
20260831105548 71 146 0.0 0.0 0.00 0.00 0.00 93 1005.9
20260831105046 71 144 0.0 0.0 0.00 0.00 0.00 93 1005.8
20260831104545 71 144 0.0 0.0 0.00 0.00 0.00 93 1005.9
20260831104045 71 144 0.0 0.0 0.00 0.00 0.00 93 1005.9
20260831103545 71 144 0.0 0.0 0.00 0.00 0.00 93 1005.9
20260831103045 71 145 0.0 0.0 0.00 0.00 0.00 93 1006.0
20260831102646 71 145 0.0 0.0 0.00 0.00 0.00 93 1005.9
20260831102047 71 145 0.0 0.0 0.00 0.00 0.00 93 1005.9
20260831101546 71 144 0.0 0.0 0.00 0.00 0.00 93 1005.9
20260831101046 71 147 0.0 0.0 0.00 0.00 0.00 93 1005.9
20260831100547 71 147 0.0 0.0 0.00 0.00 0.00 93 1005.9
20260831100045 71 147 0.0 0.0 0.00 0.00 0.00 93 1006.0
20260831095545 71 148 0.0 0.0 0.00 0.00 0.00 93 1006.0
20260831095045 71 145 0.0 0.0 0.00 0.00 0.00 93 1006.0
20260831094545 71 146 0.0 0.0 0.00 0.00 0.00 93 1006.0
20260831094045 71 127 0.0 0.0 0.00 0.00 0.00 92 1005.9
20260831093544 71 131 0.0 0.0 0.00 0.00 0.00 92 1005.9
20260831093045 71 119 0.0 0.0 0.00 0.00 0.00 92 1005.9
20260831092645 71 126 0.0 0.0 0.00 0.00 0.00 92 1006.0
20260831092045 71 126 0.0 0.0 0.00 0.00 0.00 92 1006.0
20260831091554 71 127 0.0 0.0 0.00 0.00 0.00 92 1006.1
20260831091045 71 126 0.0 0.0 0.00 0.00 0.00 92 1006.0
20260831090545 71 126 0.0 0.0 0.00 0.00 0.00 92 1006.0
20260831090045 70 125 0.0 0.0 0.00 0.00 0.00 92 1006.0
20260831085545 70 125 0.0 0.0 0.00 0.00 0.00 92 1005.9
20260831085047 70 123 0.0 0.0 0.00 0.00 0.00 92 1005.8
20260831084545 70 120 0.0 0.0 0.00 0.00 0.00 92 1005.8
20260831084045 71 120 0.0 0.0 0.00 0.00 0.00 92 1005.9
20260831083544 71 120 0.0 0.0 0.00 0.00 0.00 92 1005.8
20260831083045 71 120 0.0 0.0 0.00 0.00 0.00 91 1005.9
20260831082646 71 119 0.0 0.0 0.00 0.00 0.00 91 1005.8
20260831082043 71 119 0.0 0.0 0.00 0.00 0.00 91 1005.8
20260831081543 71 119 0.0 0.0 0.00 0.00 0.00 91 1005.8
20260831081043 71 119 0.0 0.0 0.00 0.00 0.00 91 1005.8
20260831080545 71 120 0.0 0.0 0.00 0.00 0.00 91 1005.7
20260831080042 71 128 0.0 0.0 0.00 0.00 0.00 91 1005.8
20260831075542 71 135 0.0 0.0 0.00 0.00 0.00 91 1005.9
20260831075041 71 130 0.0 0.0 0.00 0.00 0.00 91 1005.8
20260831074541 71 126 0.0 0.0 0.00 0.00 0.00 91 1005.8
20260831074041 71 125 0.0 0.0 0.00 0.00 0.00 91 1005.8
20260831073540 71 143 0.0 0.0 0.00 0.00 0.00 90 1005.8
20260831073039 71 127 0.0 0.0 0.00 0.00 0.00 90 1005.8
20260831072640 71 125 0.0 0.0 0.00 0.00 0.00 90 1005.8
20260831072038 71 115 0.0 0.0 0.00 0.00 0.00 90 1005.8
20260831071537 71 123 0.0 0.0 0.00 0.00 0.00 90 1006.0
20260831071039 71 124 0.0 0.0 0.00 0.00 0.00 90 1006.1
20260831070537 71 127 0.0 0.0 0.00 0.00 0.00 90 1006.1
20260831070037 71 117 0.0 0.0 0.00 0.00 0.00 90 1006.2
20260831065538 71 124 0.0 0.0 0.00 0.00 0.00 90 1006.4
20260831065038 71 123 0.0 0.0 0.00 0.00 0.00 90 1006.4
20260831064537 71 122 0.0 0.0 0.00 0.00 0.00 90 1006.5
20260831064037 71 128 0.0 0.0 0.00 0.00 0.00 90 1006.5
20260831063536 71 123 0.0 0.0 0.00 0.00 0.00 89 1006.6
20260831063037 71 123 0.0 0.0 0.00 0.00 0.00 89 1006.6
20260831062037 71 122 0.0 0.0 0.00 0.00 0.00 89 1006.7
20260831061537 71 123 0.0 0.0 0.00 0.00 0.00 89 1006.6
20260831061036 71 123 0.0 0.0 0.00 0.00 0.00 89 1006.6
20260831060535 72 119 0.0 0.0 0.00 0.00 0.00 89 1006.7
20260831060035 72 126 0.0 0.0 0.00 0.00 0.00 89 1006.8
20260831055539 72 129 0.0 0.0 0.00 0.00 0.00 88 1006.8
20260831055034 72 115 0.0 0.0 0.00 0.00 0.00 88 1006.9
20260831054538 72 113 0.0 0.0 0.00 0.00 0.00 88 1006.9
20260831054034 72 122 0.0 0.0 0.00 0.00 0.00 88 1007.0
20260831053534 72 122 0.0 0.0 0.00 0.00 0.00 87 1007.0
20260831053036 72 121 0.0 0.0 0.00 0.00 0.00 87 1007.1
20260831052633 72 122 0.0 0.0 0.00 0.00 0.00 87 1007.2
20260831052033 72 143 0.0 0.0 0.00 0.00 0.00 87 1007.2
20260831051533 72 145 0.0 0.0 0.00 0.00 0.00 87 1007.2
20260831051032 72 146 0.0 0.0 0.00 0.00 0.00 87 1007.3
20260831050533 72 146 0.0 0.0 0.00 0.00 0.00 87 1007.3
20260831050032 72 146 0.0 0.0 0.00 0.00 0.00 86 1007.3
20260831045532 72 146 0.0 0.0 0.00 0.00 0.00 86 1007.4
20260831045031 72 146 0.0 0.0 0.00 0.00 0.00 86 1007.4
20260831044530 72 146 0.0 0.0 0.00 0.00 0.00 86 1007.2
20260831044031 73 144 0.0 0.0 0.00 0.00 0.00 86 1007.3
20260831043532 73 144 0.0 0.0 0.00 0.00 0.00 86 1007.4
20260831043029 73 143 0.0 0.0 0.00 0.00 0.00 85 1007.5
20260831042629 73 141 0.0 0.0 0.00 0.00 0.00 85 1007.4
20260831042029 73 140 0.0 0.0 0.00 0.00 0.00 85 1007.5
20260831041602 73 163 0.0 0.0 0.00 0.00 0.00 85 1007.3
20260831041031 73 146 0.0 0.0 0.00 0.00 0.00 84 1007.3
20260831040528 73 142 0.0 0.0 0.00 0.00 0.00 84 1007.2
20260831040027 73 148 0.0 0.0 0.00 0.00 0.00 84 1007.2
20260831035530 73 148 0.0 0.0 0.00 0.00 0.00 84 1007.3
20260831035025 74 144 0.0 0.0 0.00 0.00 0.00 83 1007.6
20260831034525 74 148 0.0 0.0 0.00 0.00 0.00 83 1007.4
20260831034025 74 140 0.0 0.0 0.00 0.00 0.00 83 1007.4
20260831033525 74 146 0.0 0.0 0.00 0.00 0.00 82 1007.4
20260831033028 74 173 0.0 0.0 0.00 0.00 0.00 82 1007.3
20260831032625 74 132 0.0 0.0 0.00 0.00 0.00 82 1007.3
20260831032026 74 140 0.0 0.0 0.00 0.00 0.00 82 1007.3
20260831031524 74 163 0.0 0.0 0.00 0.00 0.00 81 1007.5
20260831031023 75 141 0.0 0.0 0.00 0.00 0.00 81 1007.5
20260831030522 75 141 0.0 0.0 0.00 0.00 0.00 81 1007.5
20260831030022 75 177 0.0 0.0 0.00 0.00 0.00 81 1007.4
20260831025522 75 136 0.0 0.0 0.00 0.00 0.00 80 1007.3
20260831025021 75 151 0.0 0.0 0.00 0.00 0.00 80 1007.3
20260831024528 75 163 0.0 0.0 0.00 0.00 0.00 80 1007.3
20260831024020 75 197 0.0 0.0 0.00 0.00 0.00 79 1007.4
20260831023521 76 125 0.0 0.0 0.00 0.00 0.00 79 1007.5
20260831023020 76 147 0.0 0.0 0.00 0.00 0.00 79 1007.5
20260831022618 76 153 0.0 0.0 0.00 0.00 0.00 78 1007.5
20260831022018 76 153 0.0 0.0 0.00 0.00 0.00 78 1007.6
20260831021533 76 169 0.0 0.0 0.00 0.00 0.00 78 1007.6
20260831021017 76 168 0.0 0.0 0.00 0.00 0.00 77 1007.7
20260831020522 77 172 0.0 0.0 0.00 0.00 0.00 77 1007.7
20260831020018 77 158 0.0 0.0 0.00 0.00 0.00 76 1007.6
20260831015517 77 156 0.0 0.0 0.00 0.00 0.00 76 1007.5
20260831015017 77 189 0.0 0.0 0.00 0.00 0.00 75 1007.4
20260831014521 77 178 0.0 0.0 0.00 0.00 0.00 75 1007.3
20260831014018 78 141 0.0 0.0 0.00 0.00 0.00 74 1007.4
20260831013517 78 190 0.0 0.0 0.00 0.00 0.00 74 1007.3
20260831013017 78 213 0.0 0.0 0.00 0.00 0.00 73 1007.3
20260831012018 78 149 0.0 0.0 0.00 0.00 0.00 72 1007.1
20260831011538 79 157 0.0 0.0 0.00 0.00 0.00 71 1006.8
20260831011018 79 175 0.0 0.0 0.00 0.00 0.00 71 1006.8
20260831010517 80 360 0.0 0.0 0.00 0.00 0.00 70 1006.9
20260831010017 80 143 0.0 0.0 0.00 0.00 0.00 70 1007.0
20260831005518 81 170 0.0 0.0 0.00 0.00 0.00 71 1007.0
20260831005017 81 148 0.0 0.0 0.00 0.00 0.00 70 1006.9
20260831004517 81 152 0.0 0.0 0.00 0.00 0.00 69 1006.8
20260831004017 81 171 0.0 0.0 0.00 0.00 0.00 69 1006.6
20260831003517 82 150 0.0 0.0 0.00 0.00 0.00 68 1006.5
20260831003017 82 127 0.0 0.0 0.00 0.00 0.00 68 1006.4
20260831002618 83 169 0.0 0.0 0.00 0.00 0.00 67 1006.4
20260831002016 83 173 0.0 0.0 0.00 0.00 0.00 66 1006.4
20260831001516 83 146 0.0 0.0 0.00 0.00 0.00 66 1006.4
20260831001016 83 158 0.0 0.0 0.00 0.00 0.00 65 1006.3
20260831000515 84 194 0.0 0.0 0.00 0.00 0.00 65 1006.3
20260831000015 84 140 0.0 0.0 0.00 0.00 0.00 65 1006.4
20260830235514 84 186 0.0 0.0 0.00 0.00 0.00 64 1006.4
20260830235014 85 191 0.0 0.0 0.00 0.00 0.00 64 1006.4
20260830234514 85 182 0.0 0.0 0.00 0.00 0.00 64 1006.4
20260830234018 85 178 0.0 0.0 0.00 0.00 0.00 64 1006.4
20260830233514 85 161 0.0 0.0 0.00 0.00 0.00 64 1006.4
20260830233022 85 156 0.0 0.0 0.00 0.00 0.00 64 1006.4
20260830232615 85 151 0.0 0.0 0.00 0.00 0.00 64 1006.4
20260830232015 86 161 0.0 0.0 0.00 0.00 0.00 64 1006.4
20260830231514 86 174 0.0 0.0 0.00 0.00 0.00 64 1006.5
20260830231016 86 184 0.0 0.0 0.00 0.00 0.00 64 1006.5
20260830230514 86 157 0.0 0.0 0.00 0.00 0.00 64 1006.4
20260830230013 86 216 0.0 0.0 0.00 0.00 0.00 65 1006.3
20260830225513 86 173 0.0 0.0 0.00 0.00 0.00 65 1006.1
20260830225012 86 180 0.0 0.0 0.00 0.00 0.00 66 1006.1
20260830224511 85 161 0.0 0.0 0.00 0.00 0.00 68 1006.0
20260830224011 85 122 0.0 0.0 0.00 0.00 0.00 69 1005.9
20260830223510 85 122 0.0 0.0 0.00 0.00 0.00 69 1006.0
20260830223008 85 119 0.0 0.0 0.00 0.00 0.00 70 1005.9
20260830222609 84 105 0.0 0.0 0.00 0.00 0.00 72 1005.9
20260830222009 84 112 0.0 0.0 0.00 0.00 0.00 72 1005.9
20260830221509 84 131 0.0 0.0 0.00 0.00 0.00 72 1005.9
20260830221008 84 107 0.0 0.0 0.00 0.00 0.00 72 1005.8
20260830220508 84 140 0.0 0.0 0.00 0.00 0.00 72 1005.9
20260830220008 84 101 0.0 0.0 0.00 0.00 0.00 72 1005.9
20260830215507 84 132 0.0 0.0 0.00 0.00 0.00 71 1005.9
20260830215006 84 115 0.0 0.0 0.00 0.00 0.00 71 1005.9
20260830214505 84 71 0.0 0.0 0.00 0.00 0.00 71 1006.0
20260830214005 84 144 0.0 0.0 0.00 0.00 0.00 71 1006.1
20260830213505 84 86 0.0 0.0 0.00 0.00 0.00 71 1006.2
20260830213008 84 128 0.0 0.0 0.00 0.00 0.00 71 1006.2
20260830212604 84 132 0.0 0.0 0.00 0.00 0.00 71 1006.3
20260830212004 84 142 0.0 0.0 0.00 0.00 0.00 72 1006.2
20260830211503 84 103 0.0 0.0 0.00 0.00 0.00 71 1006.4
20260830211002 83 103 0.0 0.0 0.00 0.00 0.00 72 1006.3
20260830210501 83 133 0.0 0.0 0.00 0.00 0.00 72 1006.4
20260830210059 83 134 0.0 0.0 0.00 0.00 0.00 72 1006.5
20260830205559 83 98 0.0 0.0 0.00 0.00 0.00 72 1006.6
20260830205058 83 99 0.0 0.0 0.00 0.00 0.00 72 1006.7
20260830204558 83 72 0.0 0.0 0.00 0.00 0.00 72 1006.7
20260830204058 83 138 0.0 0.0 0.00 0.00 0.00 72 1006.8
20260830203558 83 96 0.0 0.0 0.00 0.00 0.00 72 1006.9
20260830203057 82 90 0.0 0.0 0.00 0.00 0.00 73 1007.1
20260830202600 83 113 0.0 0.0 0.00 0.00 0.00 72 1007.0
20260830202057 83 190 0.0 0.0 0.00 0.00 0.00 72 1007.0
20260830201556 83 109 0.0 0.0 0.00 0.00 0.00 72 1007.0
20260830201054 82 133 0.0 0.0 0.00 0.00 0.00 73 1007.0
20260830200556 82 120 0.0 0.0 0.00 0.00 0.00 73 1006.8
20260830200054 82 130 0.0 0.0 0.00 0.00 0.00 74 1006.9
20260830195557 82 132 0.0 0.0 0.00 0.00 0.00 73 1006.8
20260830195054 82 131 0.0 0.0 0.00 0.00 0.00 73 1006.8
20260830194604 82 134 0.0 0.0 0.00 0.00 0.00 73 1006.7
20260830194053 82 98 0.0 0.0 0.00 0.00 0.00 73 1006.7
20260830193552 82 138 0.0 0.0 0.00 0.00 0.00 74 1006.8
20260830193102 81 131 0.0 0.0 0.00 0.00 0.00 73 1006.7
20260830192550 81 39 0.0 0.0 0.00 0.00 0.00 75 1006.9
20260830192056 81 59 0.0 0.0 0.00 0.00 0.00 75 1006.9
20260830191553 81 84 0.0 0.0 0.00 0.00 0.00 74 1007.0
20260830191052 80 88 0.0 0.0 0.00 0.00 0.00 76 1007.0
20260830190552 80 82 0.0 0.0 0.00 0.00 0.00 76 1007.0
20260830190052 80 120 0.0 0.0 0.00 0.00 0.00 75 1007.0
20260830185551 80 114 0.0 0.0 0.00 0.00 0.00 76 1007.4
20260830185050 80 162 0.0 0.0 0.00 0.00 0.00 75 1007.3
20260830184603 80 75 0.0 0.0 0.00 0.00 0.00 76 1007.3
20260830184049 80 40 0.0 0.0 0.00 0.00 0.00 76 1007.1
20260830183551 79 107 0.0 0.0 0.00 0.00 0.00 77 1007.4
20260830183051 79 105 0.0 0.0 0.00 0.00 0.00 78 1007.6
20260830182545 78 97 0.0 0.0 0.00 0.00 0.00 78 1007.7
20260830182041 78 105 0.0 0.0 0.00 0.00 0.00 78 1007.7
20260830181541 79 83 0.0 0.0 0.00 0.00 0.00 77 1007.7
20260830181044 79 72 0.0 0.0 0.00 0.00 0.00 78 1007.8
20260830180539 79 126 0.0 0.0 0.00 0.00 0.00 78 1007.9
20260830180037 79 69 0.0 0.0 0.00 0.00 0.00 79 1008.1
20260830175536 78 119 0.0 0.0 0.00 0.00 0.00 81 1008.2
20260830175035 77 119 0.0 0.0 0.00 0.00 0.00 81 1008.2
20260830174538 77 108 0.0 0.0 0.00 0.00 0.00 82 1008.2
20260830174032 77 107 0.0 0.0 0.00 0.00 0.00 82 1008.5
20260830173533 77 119 0.0 0.0 0.00 0.00 0.00 82 1008.6
20260830173032 76 118 0.0 0.0 0.00 0.00 0.00 82 1008.6